This is the latest recevied weather packets stored in our database for station/object N8RJC-13. If no packets are shown the sender has not sent any weather packets the latest 1 day(s).
| Time | Temp. | Humidity | Pressure | Rain* | Wind** | Luminosity | Snow |
|---|---|---|---|---|---|---|---|
| 1778082441 | 13.33° C | 67% | 989.8 hPa | 0 mm | 0 m/s | - | - |
| 1778082261 | 12.78° C | 68% | 989.8 hPa | 0 mm | 0.45 m/s, 4° | - | - |
| 1778082201 | 12.78° C | 68% | 989.8 hPa | 0 mm | 0.45 m/s, 4° | - | - |
| 1778082081 | 12.78° C | 68% | 989.8 hPa | 0 mm | 0.45 m/s, 4° | - | - |
| 1778082021 | 12.78° C | 69% | 990.3 hPa | 0 mm | 0.45 m/s, 183° | - | - |
| 1778081841 | 12.78° C | 69% | 990.3 hPa | 0 mm | 0.45 m/s, 183° | - | - |
| 1778081781 | 12.78° C | 69% | 990.3 hPa | 0 mm | 0.45 m/s, 183° | - | - |
| 1778081721 | 12.78° C | 66% | 990.1 hPa | 0 mm | 0.45 m/s, 15° | - | - |
| 1778081661 | 12.78° C | 66% | 990.1 hPa | 0 mm | 0.45 m/s, 15° | - | - |
| 1778081601 | 12.78° C | 66% | 990.1 hPa | 0 mm | 0.45 m/s, 15° | - | - |
| 1778081541 | 12.78° C | 66% | 990.1 hPa | 0 mm | 0.45 m/s, 15° | - | - |
| 1778081421 | 12.78° C | 71% | 989.9 hPa | 0 mm | 0.45 m/s, 262° | - | - |
| 1778081361 | 12.78° C | 71% | 989.9 hPa | 0 mm | 0.45 m/s, 262° | - | - |
| 1778081241 | 12.78° C | 71% | 989.9 hPa | 0 mm | 0.45 m/s, 262° | - | - |
| 1778081121 | 12.22° C | 68% | 990 hPa | 0 mm | 0.89 m/s, 7° | - | - |
| 1778081061 | 12.22° C | 68% | 990 hPa | 0 mm | 0.89 m/s, 7° | - | - |
| 1778080881 | 12.22° C | 68% | 990 hPa | 0 mm | 0.89 m/s, 7° | - | - |
| 1778080821 | 12.22° C | 68% | 989.9 hPa | 0 mm | 1.79 m/s, 359° | - | - |
| 1778080641 | 12.22° C | 68% | 989.9 hPa | 0 mm | 1.79 m/s, 359° | - | - |
| 1778080580 | 12.22° C | 68% | 989.9 hPa | 0 mm | 1.79 m/s, 359° | - | - |
| 1778080401 | 12.78° C | 68% | 989.5 hPa | 0 mm | 2.24 m/s, 325° | - | - |
| 1778080341 | 12.78° C | 68% | 989.5 hPa | 0 mm | 2.24 m/s, 325° | - | - |
| 1778080221 | 11.67° C | 70% | 989.5 hPa | 0 mm | 0.89 m/s, 30° | - | - |
| 1778080161 | 11.67° C | 70% | 989.5 hPa | 0 mm | 0.89 m/s, 30° | - | - |
| 1778080101 | 11.67° C | 70% | 989.5 hPa | 0 mm | 0.89 m/s, 30° | - | - |
* Rain latest hour (hover to see other rain measurements)
** Current wind speed in m/s (hover to see current wind gust speed)